Lid_Strength_Index
8 11 13 11 10 11 12 13 14 12 9 11 12 12 12 10 11 12 13 13 8 6 4 3 3 3 3 3 3 2 2 1 2 3 3 3 3 3 2 1 0 1 1 1
10 13 10 10 10 11 13 13 14 11 10 10 11 12 11 10 10 10 11 12 11 6 5 4 3 3 3 3 3 3 2 2 1 2 2 3 3 3 2 1 1 1 1 1
12 11 9 9 11 12 13 14 14 14 13 11 12 13 12 10 10 9 9 9 11 9 6 5 4 3 3 3 3 3 2 2 2 1 2 3 3 3 3 2 1 1 1 1
11 8 10 11 12 11 15 11 12 13 13 16 11 18 14 12 10 10 9 9 10 10 7 4 4 4 3 4 3 3 2 2 2 2 1 2 2 3 2 1 1 1 1 1
12 11 11 12 11 10 13 10 11 12 14 15 15 16 14 12 13 11 9 8 9 8 9 6 4 3 3 3 4 4 3 3 3 2 1 1 2 2 2 2 2 1 1 1
10 9 9 10 9 9 9 11 12 13 13 19 15 15 15 13 12 11 9 8 7 8 10 8 4 3 3 2 3 4 5 4 3 2 2 1 2 2 3 3 2 2 1 1
12 11 9 8 11 10 10 13 19 20 20 20 14 16 14 11 10 9 9 8 8 8 9 10 8 5 4 4 3 3 4 5 4 3 2 2 2 2 2 2 1 2 1 1
16 17 11 9 11 13 12 13 18 22 21 19 15 18 14 10 7 9 9 8 9 9 9 10 10 8 4 3 3 3 2 3 5 4 3 2 2 3 2 2 1 1 1 1
16 15 9 9 10 9 13 15 13 17 23 19 17 16 13 11 11 10 9 9 10 10 11 10 10 10 6 4 3 2 2 2 3 4 4 3 3 3 3 3 2 2 1 1
12 16 11 10 9 10 11 9 16 17 22 23 19 18 16 14 11 11 12 12 12 11 12 12 11 11 9 6 5 4 3 3 2 2 3 4 4 3 3 3 3 2 2 2
10 13 14 11 12 13 13 13 13 13 16 19 21 19 14 12 10 11 11 11 11 12 12 11 11 11 12 11 9 6 5 5 5 4 3 3 3 4 3 3 2 2 3 4
10 12 16 15 12 10 10 12 12 16 18 17 18 18 13 12 12 11 12 12 12 12 12 11 11 11 11 11 11 11 11 9 6 6 5 5 5 5 4 3 3 3 2 4
9 14 18 17 13 12 12 11 11 12 15 16 19 17 13 14 14 13 13 12 12 12 11 11 11 11 11 11 11 11 10 10 10 9 8 7 6 6 5 4 4 4 4 5
8 12 15 17 15 13 14 13 11 12 16 16 15 16 15 15 14 14 13 12 12 11 11 12 12 11 11 11 11 11 11 10 10 9 9 9 9 8 7 6 5 6 7 7
10 15 13 13 12 12 12 13 12 13 13 15 14 15 13 14 14 13 12 13 13 12 11 11 11 11 11 11 11 11 11 10 10 10 10 9 10 9 8 9 8 9 10 9
10 15 13 15 13 12 14 12 12 12 12 12 13 14 11 11 13 14 13 13 12 11 11 11 11 12 11 12 11 11 11 11 11 10 10 10 11 11 11 11 11 11 11 11
11 13 15 17 15 14 17 13 12 12 11 11 14 12 12 13 13 12 13 12 11 11 11 11 12 12 12 11 11 11 11 11 11 12 12 12 12 12 12 13 13 13 12 12
12 13 13 16 15 21 14 10 10 11 10 9 10 10 10 11 11 11 11 11 11 11 12 12 12 12 11 11 11 11 12 12 13 13 13 13 13 13 13 13 13 14 14 12
9 12 16 17 18 17 15 15 12 12 12 9 10 11 11 11 11 12 11 11 11 11 12 12 12 12 12 12 12 13 14 14 13 13 13 13 13 15 14 16 16 13 14 14
10 10 14 18 18 20 14 14 10 10 15 9 9 9 12 12 13 12 12 12 12 12 12 12 12 12 13 13 13 14 14 14 14 14 13 13 14 16 17 16 17 14 14 14
15 14 16 16 17 17 14 14 9 16 14 10 9 9 10 11 10 11 12 13 13 13 13 13 14 14 14 14 14 14 14 15 14 14 15 16 16 17 17 18 18 16 14 14
15 16 16 16 18 18 14 11 13 11 12 13 9 8 9 9 13 12 13 14 14 14 15 15 15 16 15 14 14 15 15 15 17 16 17 18 19 17 18 19 20 20 17 14
17 12 15 14 14 14 11 11 10 13 12 13 12 10 8 9 14 14 14 15 15 15 15 15 16 16 17 17 16 15 16 17 18 18 20 21 20 19 20 20 21 20 21 20
14 12 14 14 13 14 12 13 12 14 13 13 13 12 10 12 13 15 15 16 15 16 16 17 17 18 19 20 18 19 17 17 19 19 19 20 19 20 21 18 19 21 22 22
14 13 15 16 15 14 14 13 12 13 14 14 14 14 12 13 14 15 16 16 16 17 18 18 18 19 21 21 21 22 20 20 18 19 19 20 20 22 21 20 20 19 19 18
16 17 13 15 14 13 13 12 13 13 13 14 14 15 15 13 14 15 16 16 17 18 19 20 21 21 23 23 24 25 24 21 20 19 20 21 21 22 21 21 20 14 13 12